Hourly Data Report for October 23, 2013

All times are specified in Local Standard Time (LST). Add 1 hour to adjust for Daylight Saving Time where and when it is observed.

ST LEONARD CS
NEW BRUNSWICK

47°09'28.050" N
67°49'55.014" W
245.00 m
810I001
71019
WIY

Download Data

Hourly Data (October 2013)
Hourly Data Report for October 23, 2013
Temp Definition
°C
Dew Point Temp Definition
°C
Rel Hum Definition
%
Wind Dir Definition
10's deg

Wind Spd Definition
km/h
Visibility Definition
km
Stn Press Definition
kPa
Hmdx Definition


Wind Chill Definition


Weather Definition


TIME
00:00 4.6 3.0 89 23 9   97.51     LegendNANA
01:00 3.2 1.8 91 24 7   97.54     LegendNANA
02:00 2.2 1.3 94 23 6   97.54     LegendNANA
03:00 0.0 -0.2 99   0   97.54     LegendNANA
04:00 -1.0 -1.2 99   0   97.54     LegendNANA
05:00 0.0 -1.2 92   0   97.50     LegendNANA
06:00 -0.6 -1.0 97 17 7   97.51   -3 LegendNANA
07:00 -0.2 -1.0 94 19 7   97.54   -3 LegendNANA
08:00 1.2 -0.1 91 22 7   97.54     LegendNANA
09:00 2.7 0.5 85 23 11   97.52     LegendNANA
10:00 4.4 1.3 80 23 17   97.48     LegendNANA
11:00 4.8 0.8 75 25 17   97.48     LegendNANA
12:00 5.3 0.8 73 23 15   97.45     LegendNANA
13:00
14:00 6.1 0.0 65 23 20   97.30     LegendNANA
15:00 5.9 0.0 66 23 15   97.31     LegendNANA
16:00 5.7 0.1 67 24 13   97.28     LegendNANA
17:00 5.3 0.0 69 24 7   97.26     LegendNANA
18:00 4.5 0.1 73 19 2   97.27     LegendNANA
19:00 4.2 0.4 76 18 2   97.27     LegendNANA
20:00 2.5 -0.7 79 21 4   97.24     LegendNANA
21:00 1.7 -0.9 83 22 4   97.22     LegendNANA
22:00 0.2 -2.0 85 25 2   97.13     LegendNANA
23:00 -1.4 -2.4 93   0   97.11     LegendNANA

Notes on Data Quality.

Legend

  • E = Estimated
  • M = Missing
  • NA = Not Available
  • ‡ = Partner data that is not subject to review by the National Climate Archives
Date modified: